Zurück zum Katalog

OPS 4682 DEB

AktivPO
NORAD 51500·DEBRIS·🇺🇸 United States

Gestartet Apr 3, 1965 von Vandenberg Space Force Base

Loading…

Nächste Überflüge (nächste 24 Stunden)

TLE

AktuellSource: Space-Track

Epoche: Sep 14, 2026, 14:08 UTC

1 51500U 65027GL  26257.58907147  .00000140  00000-0  48641-3 0  9995
2 51500  90.2493   8.3058 0030278  43.8091 316.5421 12.93035013423771

Verfolge OPS 4682 DEB in Echtzeit mit AllMySat

Download on the App Store